sat.trackr.live / text

‹ back to catalog

CHUANGXIN 1 (CX-1)

NORAD 28058 · 2003-049B

PAYLOAD ACTIVE UNKNOWN

§ Identity

Operator
Country
PRC
Launch date
2003-10-21
Launch site
TAISC
Launch vehicle
Mass (kg)
RCS (m²)
0.53

External: N2YO · Heavens-Above · Gunter

§ Orbital elements

Epoch: 2026-09-19T22:36:17.699328Z

Period
99.40 min
Inclination
98.4948°
Eccentricity
0.0011280
Mean motion
14.48621931 rev/d
Perigee alt
722.1 km
Apogee alt
738.2 km
Semi-major
7,108.3 km
B*
4.2720e-5
RAAN
162.6425°
Arg perigee
254.2889°
Mean anomaly
105.7060°
Rev number
20,999

§ Raw data

CHUANGXIN 1 (CX-1)1 28058U 03049B   26262.94187152  .00000115  00000+0  42720-4 0  99992 28058  98.4948 162.6425 0011280 254.2889 105.7060 14.48621931209990

JSON: /api/v1/satellites/28058 · /tle

For live sub-satellite position, see the globe view (requires WebGL).

§ Visibility from observer

Set your observer location to see the next 7 days of passes ≥ 10°. The values pass through the URL so the page stays shareable.

No JS? Fill the form by hand. The geolocation button needs JavaScript.